CZ-4B DEB

Satellite information

Favourite Embed

Satellite Type and Status

DEBRISIN ORBIT

Key statistics

Satellite CZ-4B DEB at a glance.

Uptime

5548

Days in orbit

Revolutions

≈ 15.2

Per day

Orbit

SSO

Sun Synchronous Orbit

Inclination

97.8

Latest

Satellite identification and parameters

Extended collection of information and parameters for CZ-4B DEB.

Object identification

Identified? True

Debris? True

Object name: CZ-4B DEB

International designator: 2010-051E

Object number (NORAD): 38184

Object ID (CCSDS): 38184

Country: PEOPLES REPUBLIC OF CHINA (PRC)

Current information (Y/N): Y

RCS size: SMALL

Orbital parameters

Period: 95.048 minutes

Inclination: 97.7635 deg

SMA: 6899.03 km

Apoapsis: 566.527 km

Periapsis: 475.263 km

RAAN: 152.5953 deg

Eccentricy: 0.00661422

Argument of periapsis: 239.1942 deg

Mean anomaly: 120.2769 deg

Mean motion: 15.15028171 rev/day

Mean motion (dot): 0.00066225 rev/day2

B* drag term: 0.0033320987 1/REarth

Two-line elements (TLE)

Creation date: Dec. 14, 2025, 3:07 a.m.

Reference frame: TEME

Reference center: EARTH

Epoch: Dec. 13, 2025, 10:28 a.m. UTC

TLE line 0: 0 CZ-4B DEB

TLE line 1: 1 38184U 10051E 25347.43678237 .00066225 00000-0 33321-2 0 9997

TLE line 2: 2 38184 97.7635 152.5953 0066142 239.1942 120.2769 15.15028171807689

Live tracking on map

Real-time ground track for satellite CZ-4B DEB.

In-orbit conjunctions

A list of the most updated potential collisions computed for object CZ-4B DEB.

Target Orbit TCA Probability of collision Miss distance Type
OBJECT H LEO 2025-12-06 07:06:54 0.0003622786 122.0 (m) UNKNOWN
ELECTRON KICK STAGE R/B SSO 2025-01-28 18:39:04 0.0002056074 205.0 (m) ROCKET BODY
PSLV DEB SSO 2024-11-12 03:33:22 0.0008891335 384.0 (m) DEBRIS
IRIDIUM 33 DEB LEO 2024-08-26 15:22:53 0.0006233529 57.0 (m) DEBRIS

Associated space launch

CZ-4B DEB was lifted into orbit during the mission ‘Long March 4B | Shijian 6G & Shijian 6H’, on board a Long March 4B space rocket.

The launch took place on Oct. 6, 2010, 12:49 a.m. from Launch Complex 7.

For more information about the launch, click the button.

Launch to space Long March 4B | Shijian 6G & Shijian 6H
Long March 4B | Shijian 6G & Shijian 6H

Agency: N/A

Status: Launch Successful

Launch date: Oct. 6, 2010, 12:49 a.m. UTC

Rocket: Long March 4B

Launch pad: Launch Complex 7

Location: Taiyuan Satellite Launch Center, People's Republic of China

...

Latest news about this satellite

There are no fresh news available about this satellite. Check back as we update our databases every day.


Newsletter sign-up

Weekly statistics, charts and insights to help you stay on top of the space industry.